Year,Month,Day,Hour,Minute,Value (Times are PST for temperature in C)
2009,05,22,00,00,8.20
2009,05,22,00,01,8.20
2009,05,22,00,02,8.20
2009,05,22,00,03,8.20
2009,05,22,00,04,8.10
2009,05,22,00,05,8.10
2009,05,22,00,06,8.10
2009,05,22,00,07,8.30
2009,05,22,00,08,8.30
2009,05,22,00,09,8.40
2009,05,22,00,10,8.40
2009,05,22,00,11,8.30
2009,05,22,00,12,8.30
2009,05,22,00,13,8.40
2009,05,22,00,14,8.40
2009,05,22,00,15,8.40
2009,05,22,00,16,8.50
2009,05,22,00,17,8.50
2009,05,22,00,18,8.50
2009,05,22,00,19,8.40
2009,05,22,00,20,8.40
2009,05,22,00,21,8.30
2009,05,22,00,22,8.30
2009,05,22,00,23,8.30
2009,05,22,00,24,8.20
2009,05,22,00,25,8.10
2009,05,22,00,26,8.00
2009,05,22,00,27,7.90
2009,05,22,00,28,7.80
2009,05,22,00,29,7.80
2009,05,22,00,30,7.80
2009,05,22,00,31,7.80
2009,05,22,00,32,7.80
2009,05,22,00,33,7.80
2009,05,22,00,34,7.70
2009,05,22,00,35,7.60
2009,05,22,00,36,7.70
2009,05,22,00,37,7.80
2009,05,22,00,38,7.80
2009,05,22,00,39,7.70
2009,05,22,00,40,7.70
2009,05,22,00,41,7.70
2009,05,22,00,42,7.70
2009,05,22,00,43,7.70
2009,05,22,00,44,7.70
2009,05,22,00,45,7.70
2009,05,22,00,46,7.70
2009,05,22,00,47,7.70
2009,05,22,00,48,7.60
2009,05,22,00,49,7.60
2009,05,22,00,50,7.50
2009,05,22,00,51,7.40
2009,05,22,00,52,7.40
2009,05,22,00,53,7.40
2009,05,22,00,54,7.30
2009,05,22,00,55,7.30
2009,05,22,00,56,7.30
2009,05,22,00,57,7.30
2009,05,22,00,58,7.30
2009,05,22,00,59,7.40
2009,05,22,01,00,7.50
2009,05,22,01,01,7.60
2009,05,22,01,02,7.60
2009,05,22,01,03,7.70
2009,05,22,01,04,7.80
2009,05,22,01,05,8.00
2009,05,22,01,06,8.10
2009,05,22,01,07,8.20
2009,05,22,01,08,8.40
2009,05,22,01,09,8.60
2009,05,22,01,10,8.70
2009,05,22,01,11,8.70
2009,05,22,01,12,8.80
2009,05,22,01,13,8.80
2009,05,22,01,14,8.90
2009,05,22,01,15,8.80
2009,05,22,01,16,8.80
2009,05,22,01,17,8.80
2009,05,22,01,18,8.70
2009,05,22,01,19,8.60
2009,05,22,01,20,8.50
2009,05,22,01,21,8.40
2009,05,22,01,22,8.30
2009,05,22,01,23,8.30
2009,05,22,01,24,8.10
2009,05,22,01,25,8.10
2009,05,22,01,26,8.00
2009,05,22,01,27,7.90
2009,05,22,01,28,7.80
2009,05,22,01,29,7.70
2009,05,22,01,30,7.70
2009,05,22,01,31,7.70
2009,05,22,01,32,7.60
2009,05,22,01,33,7.60
2009,05,22,01,34,7.70
2009,05,22,01,35,7.70
2009,05,22,01,36,7.70
2009,05,22,01,37,7.60
2009,05,22,01,38,7.50
2009,05,22,01,39,7.40
2009,05,22,01,40,7.40
2009,05,22,01,41,7.40
2009,05,22,01,42,7.40
2009,05,22,01,43,7.40
2009,05,22,01,44,7.40
2009,05,22,01,45,7.50
2009,05,22,01,46,7.50
2009,05,22,01,47,7.40
2009,05,22,01,48,7.30
2009,05,22,01,49,7.20
2009,05,22,01,50,7.20
2009,05,22,01,51,7.10
2009,05,22,01,52,7.00
2009,05,22,01,53,7.00
2009,05,22,01,54,7.00
2009,05,22,01,55,7.10
2009,05,22,01,56,7.20
2009,05,22,01,57,7.20
2009,05,22,01,58,7.20
2009,05,22,01,59,7.20
2009,05,22,02,00,7.30
2009,05,22,02,01,7.30
2009,05,22,02,02,7.20
2009,05,22,02,03,7.20
2009,05,22,02,04,7.30
2009,05,22,02,05,7.30
2009,05,22,02,06,7.30
2009,05,22,02,07,7.30
2009,05,22,02,08,7.30
2009,05,22,02,09,7.40
2009,05,22,02,10,7.40
2009,05,22,02,11,7.40
2009,05,22,02,12,7.40
2009,05,22,02,13,7.50
2009,05,22,02,14,7.60
2009,05,22,02,15,7.50
2009,05,22,02,16,7.30
2009,05,22,02,17,7.30
2009,05,22,02,18,7.20
2009,05,22,02,19,7.40
2009,05,22,02,20,7.50
2009,05,22,02,21,7.60
2009,05,22,02,22,7.70
2009,05,22,02,23,7.60
2009,05,22,02,24,7.50
2009,05,22,02,25,7.40
2009,05,22,02,26,7.30
2009,05,22,02,27,7.30
2009,05,22,02,28,7.30
2009,05,22,02,29,7.20
2009,05,22,02,30,7.20
2009,05,22,02,31,7.10
2009,05,22,02,32,7.00
2009,05,22,02,33,6.90
2009,05,22,02,34,6.90
2009,05,22,02,35,6.80
2009,05,22,02,36,6.70
2009,05,22,02,37,6.70
2009,05,22,02,38,6.70
2009,05,22,02,39,6.70
2009,05,22,02,40,6.80
2009,05,22,02,41,6.90
2009,05,22,02,42,7.00
2009,05,22,02,43,7.10
2009,05,22,02,44,7.20
2009,05,22,02,45,7.30
2009,05,22,02,46,7.50
2009,05,22,02,47,7.70
2009,05,22,02,48,7.90
2009,05,22,02,49,8.10
2009,05,22,02,50,8.30
2009,05,22,02,51,8.50
2009,05,22,02,52,8.60
2009,05,22,02,53,8.60
2009,05,22,02,54,8.60
2009,05,22,02,55,8.50
2009,05,22,02,56,8.40
2009,05,22,02,57,8.20
2009,05,22,02,58,8.00
2009,05,22,02,59,7.80
2009,05,22,03,00,7.60
2009,05,22,03,01,7.50
2009,05,22,03,02,7.60
2009,05,22,03,03,7.70
2009,05,22,03,04,7.80
2009,05,22,03,05,7.80
2009,05,22,03,06,8.00
2009,05,22,03,07,8.00
2009,05,22,03,08,8.00
2009,05,22,03,09,7.90
2009,05,22,03,10,7.70
2009,05,22,03,11,7.60
2009,05,22,03,12,7.50
2009,05,22,03,13,7.30
2009,05,22,03,14,7.20
2009,05,22,03,15,7.10
2009,05,22,03,16,7.00
2009,05,22,03,17,6.90
2009,05,22,03,18,6.80
2009,05,22,03,19,6.70
2009,05,22,03,20,6.60
2009,05,22,03,21,6.60
2009,05,22,03,22,6.50
2009,05,22,03,23,6.50
2009,05,22,03,24,6.40
2009,05,22,03,25,6.30
2009,05,22,03,26,6.30
2009,05,22,03,27,6.30
2009,05,22,03,28,6.30
2009,05,22,03,29,6.30
2009,05,22,03,30,6.20
2009,05,22,03,31,6.10
2009,05,22,03,32,6.00
2009,05,22,03,33,6.00
2009,05,22,03,34,6.00
2009,05,22,03,35,6.10
2009,05,22,03,36,6.20
2009,05,22,03,37,6.30
2009,05,22,03,38,6.30
2009,05,22,03,39,6.30
2009,05,22,03,40,6.30
2009,05,22,03,41,6.30
2009,05,22,03,42,6.20
2009,05,22,03,43,6.20
2009,05,22,03,44,6.10
2009,05,22,03,45,6.10
2009,05,22,03,46,6.00
2009,05,22,03,47,6.00
2009,05,22,03,48,6.10
2009,05,22,03,49,6.10
2009,05,22,03,50,6.10
2009,05,22,03,51,6.10
2009,05,22,03,52,6.10
2009,05,22,03,53,6.10
2009,05,22,03,54,6.10
2009,05,22,03,55,6.10
2009,05,22,03,56,6.20
2009,05,22,03,57,6.20
2009,05,22,03,58,6.20
2009,05,22,03,59,6.20
2009,05,22,04,00,6.20
2009,05,22,04,01,6.10
2009,05,22,04,02,6.00
2009,05,22,04,03,5.90
2009,05,22,04,04,5.90
2009,05,22,04,05,5.80
2009,05,22,04,06,5.70
2009,05,22,04,07,5.60
2009,05,22,04,08,5.60
2009,05,22,04,09,5.50
2009,05,22,04,10,5.40
2009,05,22,04,11,5.40
2009,05,22,04,12,5.30
2009,05,22,04,13,5.30
2009,05,22,04,14,5.30
2009,05,22,04,15,5.20
2009,05,22,04,16,5.20
2009,05,22,04,17,5.20
2009,05,22,04,18,5.20
2009,05,22,04,19,5.20
2009,05,22,04,20,5.20
2009,05,22,04,21,5.20
2009,05,22,04,22,5.10
2009,05,22,04,23,5.10
2009,05,22,04,24,5.10
2009,05,22,04,25,5.00
2009,05,22,04,26,5.00
2009,05,22,04,27,4.90
2009,05,22,04,28,4.80
2009,05,22,04,29,4.80
2009,05,22,04,30,4.80
2009,05,22,04,31,4.80
2009,05,22,04,32,4.80
2009,05,22,04,33,4.80
2009,05,22,04,34,4.70
2009,05,22,04,35,4.70
2009,05,22,04,36,4.70
2009,05,22,04,37,4.70
2009,05,22,04,38,4.70
2009,05,22,04,39,4.70
2009,05,22,04,40,4.60
2009,05,22,04,41,4.60
2009,05,22,04,42,4.60
2009,05,22,04,43,4.60
2009,05,22,04,44,4.60
2009,05,22,04,45,4.60
2009,05,22,04,46,4.60
2009,05,22,04,47,4.60
2009,05,22,04,48,4.60
2009,05,22,04,49,4.60
2009,05,22,04,50,4.60
2009,05,22,04,51,4.60
2009,05,22,04,52,4.60
2009,05,22,04,53,4.60
2009,05,22,04,54,4.70
2009,05,22,04,55,4.70
2009,05,22,04,56,4.70
2009,05,22,04,57,4.70
2009,05,22,04,58,4.70
2009,05,22,04,59,4.70
2009,05,22,05,00,4.70
2009,05,22,05,01,4.70
2009,05,22,05,02,4.70
2009,05,22,05,03,4.70
2009,05,22,05,04,4.80
2009,05,22,05,05,4.90
2009,05,22,05,06,4.90
2009,05,22,05,07,4.90
2009,05,22,05,08,4.90
2009,05,22,05,09,4.90
2009,05,22,05,10,4.90
2009,05,22,05,11,4.80
2009,05,22,05,12,4.70
2009,05,22,05,13,4.70
2009,05,22,05,14,4.70
2009,05,22,05,15,4.70
2009,05,22,05,16,4.70
2009,05,22,05,17,4.80
2009,05,22,05,18,4.90
2009,05,22,05,19,5.00
2009,05,22,05,20,5.10
2009,05,22,05,21,5.20
2009,05,22,05,22,5.30
2009,05,22,05,23,5.30
2009,05,22,05,24,5.40
2009,05,22,05,25,5.50
2009,05,22,05,26,5.60
2009,05,22,05,27,5.70
2009,05,22,05,28,5.80
2009,05,22,05,29,6.00
2009,05,22,05,30,6.00
2009,05,22,05,31,6.10
2009,05,22,05,32,6.10
2009,05,22,05,33,6.20
2009,05,22,05,34,6.20
2009,05,22,05,35,6.20
2009,05,22,05,36,6.20
2009,05,22,05,37,6.20
2009,05,22,05,38,6.20
2009,05,22,05,39,6.10
2009,05,22,05,40,6.00
2009,05,22,05,41,5.90
2009,05,22,05,42,5.90
2009,05,22,05,43,5.80
2009,05,22,05,44,5.60
2009,05,22,05,45,5.60
2009,05,22,05,46,5.50
2009,05,22,05,47,5.40
2009,05,22,05,48,5.30
2009,05,22,05,49,5.30
2009,05,22,05,50,5.20
2009,05,22,05,51,5.20
2009,05,22,05,52,5.10
2009,05,22,05,53,5.10
2009,05,22,05,54,5.10
2009,05,22,05,55,5.10
2009,05,22,05,56,5.00
2009,05,22,05,57,4.90
2009,05,22,05,58,4.80
2009,05,22,05,59,4.70
2009,05,22,06,00,4.70
2009,05,22,06,01,4.70
2009,05,22,06,02,4.70
2009,05,22,06,03,4.80
2009,05,22,06,04,5.00
2009,05,22,06,05,5.20
2009,05,22,06,06,5.30
2009,05,22,06,07,5.40
2009,05,22,06,08,5.50
2009,05,22,06,09,5.60
2009,05,22,06,10,5.60
2009,05,22,06,11,5.60
2009,05,22,06,12,5.60
2009,05,22,06,13,5.60
2009,05,22,06,14,5.60
2009,05,22,06,15,5.50
2009,05,22,06,16,5.50
2009,05,22,06,17,5.60
2009,05,22,06,18,5.60
2009,05,22,06,19,5.60
2009,05,22,06,20,5.60
2009,05,22,06,21,5.60
2009,05,22,06,22,5.60
2009,05,22,06,23,5.60
2009,05,22,06,24,5.60
2009,05,22,06,25,5.70
2009,05,22,06,26,5.70
2009,05,22,06,27,5.80
2009,05,22,06,28,5.90
2009,05,22,06,29,5.90
2009,05,22,06,30,5.90
2009,05,22,06,31,6.00
2009,05,22,06,32,6.10
2009,05,22,06,33,6.10
2009,05,22,06,34,6.20
2009,05,22,06,35,6.30
2009,05,22,06,36,6.40
2009,05,22,06,37,6.50
2009,05,22,06,38,6.60
2009,05,22,06,39,6.70
2009,05,22,06,40,6.90
2009,05,22,06,41,7.10
2009,05,22,06,42,7.20
2009,05,22,06,43,7.30
2009,05,22,06,44,7.40
2009,05,22,06,45,7.50
2009,05,22,06,46,7.50
2009,05,22,06,47,7.60
2009,05,22,06,48,7.70
2009,05,22,06,49,7.80
2009,05,22,06,50,8.00
2009,05,22,06,51,8.10
2009,05,22,06,52,8.20
2009,05,22,06,53,8.40
2009,05,22,06,54,8.50
2009,05,22,06,55,8.60
2009,05,22,06,56,8.70
2009,05,22,06,57,8.80
2009,05,22,06,58,8.90
2009,05,22,06,59,9.00
2009,05,22,07,00,9.10
2009,05,22,07,01,9.20
2009,05,22,07,02,9.30
2009,05,22,07,03,9.30
2009,05,22,07,04,9.50
2009,05,22,07,05,9.60
2009,05,22,07,06,9.60
2009,05,22,07,07,9.80
2009,05,22,07,08,9.80
2009,05,22,07,09,9.90
2009,05,22,07,10,10.00
2009,05,22,07,11,10.00
2009,05,22,07,12,10.10
2009,05,22,07,13,10.20
2009,05,22,07,14,10.20
2009,05,22,07,15,10.30
2009,05,22,07,16,10.30
2009,05,22,07,17,10.40
2009,05,22,07,18,10.50
2009,05,22,07,19,10.60
2009,05,22,07,20,10.60
2009,05,22,07,21,10.70
2009,05,22,07,22,10.70
2009,05,22,07,23,10.70
2009,05,22,07,24,10.80
2009,05,22,07,25,10.80
2009,05,22,07,26,10.80
2009,05,22,07,27,10.90
2009,05,22,07,28,11.00
2009,05,22,07,29,11.00
2009,05,22,07,30,11.10
2009,05,22,07,31,11.10
2009,05,22,07,32,11.10
2009,05,22,07,33,11.10
2009,05,22,07,34,11.10
2009,05,22,07,35,11.20
2009,05,22,07,36,11.20
2009,05,22,07,37,11.20
2009,05,22,07,38,11.20
2009,05,22,07,39,11.20
2009,05,22,07,40,11.30
2009,05,22,07,41,11.30
2009,05,22,07,42,11.20
2009,05,22,07,43,11.20
2009,05,22,07,44,11.10
2009,05,22,07,45,11.00
2009,05,22,07,46,11.00
2009,05,22,07,47,10.90
2009,05,22,07,48,10.90
2009,05,22,07,49,11.00
2009,05,22,07,50,11.10
2009,05,22,07,51,11.10
2009,05,22,07,52,11.20
2009,05,22,07,53,11.20
2009,05,22,07,54,11.30
2009,05,22,07,55,11.30
2009,05,22,07,56,11.30
2009,05,22,07,57,11.30
2009,05,22,07,58,11.30
2009,05,22,07,59,11.30
2009,05,22,08,00,11.30
2009,05,22,08,01,11.20
2009,05,22,08,02,11.20
2009,05,22,08,03,11.20
2009,05,22,08,04,11.20
2009,05,22,08,05,11.20
2009,05,22,08,06,11.20
2009,05,22,08,07,11.30
2009,05,22,08,08,11.30
2009,05,22,08,09,11.40
2009,05,22,08,10,11.40
2009,05,22,08,11,11.50
2009,05,22,08,12,11.60
2009,05,22,08,13,11.60
2009,05,22,08,14,11.70
2009,05,22,08,15,11.80
2009,05,22,08,16,11.80
2009,05,22,08,17,11.80
2009,05,22,08,18,11.80
2009,05,22,08,19,11.80
2009,05,22,08,20,11.70
2009,05,22,08,21,11.70
2009,05,22,08,22,11.70
2009,05,22,08,23,11.70
2009,05,22,08,24,11.70
2009,05,22,08,25,11.70
2009,05,22,08,26,11.60
2009,05,22,08,27,11.60
2009,05,22,08,28,11.50
2009,05,22,08,29,11.50
2009,05,22,08,30,11.60
2009,05,22,08,31,11.60
2009,05,22,08,32,11.60
2009,05,22,08,33,11.70
2009,05,22,08,34,11.70
2009,05,22,08,35,11.70
2009,05,22,08,36,11.80
2009,05,22,08,37,11.90
2009,05,22,08,38,11.90
2009,05,22,08,39,12.00
2009,05,22,08,40,12.00
2009,05,22,08,41,12.00
2009,05,22,08,42,12.00
2009,05,22,08,43,12.00
2009,05,22,08,44,12.10
2009,05,22,08,45,12.10
2009,05,22,08,46,12.00
2009,05,22,08,47,11.90
2009,05,22,08,48,11.80
2009,05,22,08,49,11.80
2009,05,22,08,50,11.70
2009,05,22,08,51,11.60
2009,05,22,08,52,11.60
2009,05,22,08,53,11.60
2009,05,22,08,54,11.60
2009,05,22,08,55,11.60
2009,05,22,08,56,11.60
2009,05,22,08,57,11.60
2009,05,22,08,58,11.70
2009,05,22,08,59,11.70
2009,05,22,09,00,11.80
2009,05,22,09,01,11.80
2009,05,22,09,02,11.90
2009,05,22,09,03,11.90
2009,05,22,09,04,11.90
2009,05,22,09,05,11.90
2009,05,22,09,06,12.00
2009,05,22,09,07,12.10
2009,05,22,09,08,12.10
2009,05,22,09,09,12.10
2009,05,22,09,10,12.10
2009,05,22,09,11,12.10
2009,05,22,09,12,12.10
2009,05,22,09,13,12.10
2009,05,22,09,14,12.20
2009,05,22,09,15,12.20
2009,05,22,09,16,12.10
2009,05,22,09,17,12.00
2009,05,22,09,18,12.00
2009,05,22,09,19,11.90
2009,05,22,09,20,11.90
2009,05,22,09,21,11.80
2009,05,22,09,22,11.80
2009,05,22,09,23,11.70
2009,05,22,09,24,11.70
2009,05,22,09,25,11.70
2009,05,22,09,26,11.70
2009,05,22,09,27,11.60
2009,05,22,09,28,11.50
2009,05,22,09,29,11.50
2009,05,22,09,30,11.50
2009,05,22,09,31,11.50
2009,05,22,09,32,11.60
2009,05,22,09,33,11.60
2009,05,22,09,34,11.70
2009,05,22,09,35,11.80
2009,05,22,09,36,11.90
2009,05,22,09,37,12.00
2009,05,22,09,38,12.10
2009,05,22,09,39,12.10
2009,05,22,09,40,12.10
2009,05,22,09,41,12.00
2009,05,22,09,42,11.90
2009,05,22,09,43,11.90
2009,05,22,09,44,11.80
2009,05,22,09,45,11.70
2009,05,22,09,46,11.60
2009,05,22,09,47,11.50
2009,05,22,09,48,11.50
2009,05,22,09,49,11.60
2009,05,22,09,50,11.50
2009,05,22,09,51,11.50
2009,05,22,09,52,11.50
2009,05,22,09,53,11.50
2009,05,22,09,54,11.50
2009,05,22,09,55,11.40
2009,05,22,09,56,11.40
2009,05,22,09,57,11.50
2009,05,22,09,58,11.50
2009,05,22,09,59,11.50
2009,05,22,10,00,11.50
2009,05,22,10,01,11.50
2009,05,22,10,02,11.50
2009,05,22,10,03,11.50
2009,05,22,10,04,11.50
2009,05,22,10,05,11.60
2009,05,22,10,06,11.70
2009,05,22,10,07,11.70
2009,05,22,10,08,11.70
2009,05,22,10,09,11.70
2009,05,22,10,10,11.70
2009,05,22,10,11,11.70
2009,05,22,10,12,11.70
2009,05,22,10,13,11.80
2009,05,22,10,14,11.80
2009,05,22,10,15,11.80
2009,05,22,10,16,11.80
2009,05,22,10,17,11.80
2009,05,22,10,18,11.80
2009,05,22,10,19,11.70
2009,05,22,10,20,11.70
2009,05,22,10,21,11.60
2009,05,22,10,22,11.60
2009,05,22,10,23,11.60
2009,05,22,10,24,11.60
2009,05,22,10,25,11.60
2009,05,22,10,26,11.70
2009,05,22,10,27,11.80
2009,05,22,10,28,11.90
2009,05,22,10,29,11.90
2009,05,22,10,30,11.90
2009,05,22,10,31,12.00
2009,05,22,10,32,12.00
2009,05,22,10,33,12.00
2009,05,22,10,34,12.00
2009,05,22,10,35,11.90
2009,05,22,10,36,11.90
2009,05,22,10,37,12.00
2009,05,22,10,38,12.00
2009,05,22,10,39,12.00
2009,05,22,10,40,11.90
2009,05,22,10,41,11.90
2009,05,22,10,42,11.90
2009,05,22,10,43,12.00
2009,05,22,10,44,11.90
2009,05,22,10,45,11.80
2009,05,22,10,46,11.80
2009,05,22,10,47,11.80
2009,05,22,10,48,11.70
2009,05,22,10,49,11.70
2009,05,22,10,50,11.70
2009,05,22,10,51,11.70
2009,05,22,10,52,11.80
2009,05,22,10,53,11.90
2009,05,22,10,54,11.90
2009,05,22,10,55,11.90
2009,05,22,10,56,11.90
2009,05,22,10,57,11.90
2009,05,22,10,58,11.90
2009,05,22,10,59,11.90
2009,05,22,11,00,11.90
2009,05,22,11,01,11.80
2009,05,22,11,02,11.80
2009,05,22,11,03,11.80
2009,05,22,11,04,11.90
2009,05,22,11,05,11.90
2009,05,22,11,06,11.90
2009,05,22,11,07,12.00
2009,05,22,11,08,12.00
2009,05,22,11,09,12.10
2009,05,22,11,10,12.10
2009,05,22,11,11,12.20
2009,05,22,11,12,12.20
2009,05,22,11,13,12.20
2009,05,22,11,14,12.10
2009,05,22,11,15,12.10
2009,05,22,11,16,12.10
2009,05,22,11,17,12.10
2009,05,22,11,18,12.20
2009,05,22,11,19,12.20
2009,05,22,11,20,12.20
2009,05,22,11,21,12.30
2009,05,22,11,22,12.50
2009,05,22,11,23,12.60
2009,05,22,11,24,12.60
2009,05,22,11,25,12.60
2009,05,22,11,26,12.50
2009,05,22,11,27,12.40
2009,05,22,11,28,12.40
2009,05,22,11,29,12.50
2009,05,22,11,30,12.60
2009,05,22,11,31,12.70
2009,05,22,11,32,12.60
2009,05,22,11,33,12.60
2009,05,22,11,34,12.60
2009,05,22,11,35,12.60
2009,05,22,11,36,12.70
2009,05,22,11,37,12.70
2009,05,22,11,38,12.70
2009,05,22,11,39,12.60
2009,05,22,11,40,12.60
2009,05,22,11,41,12.60
2009,05,22,11,42,12.70
2009,05,22,11,43,12.80
2009,05,22,11,44,12.80
2009,05,22,11,45,12.70
2009,05,22,11,46,12.50
2009,05,22,11,47,12.50
2009,05,22,11,48,12.40
2009,05,22,11,49,12.30
2009,05,22,11,50,12.30
2009,05,22,11,51,12.20
2009,05,22,11,52,12.20
2009,05,22,11,53,12.10
2009,05,22,11,54,12.20
2009,05,22,11,55,12.10
2009,05,22,11,56,12.10
2009,05,22,11,57,12.10
2009,05,22,11,58,12.20
2009,05,22,11,59,12.20
2009,05,22,12,00,12.20
2009,05,22,12,01,12.20
2009,05,22,12,02,12.30
2009,05,22,12,03,12.30
2009,05,22,12,04,12.30
2009,05,22,12,05,12.20
2009,05,22,12,06,12.20
2009,05,22,12,07,12.10
2009,05,22,12,08,12.10
2009,05,22,12,09,12.10
2009,05,22,12,10,12.10
2009,05,22,12,11,12.10
2009,05,22,12,12,12.10
2009,05,22,12,13,12.20
2009,05,22,12,14,12.40
2009,05,22,12,15,12.40
2009,05,22,12,16,12.40
2009,05,22,12,17,12.50
2009,05,22,12,18,12.50
2009,05,22,12,19,12.60
2009,05,22,12,20,12.60
2009,05,22,12,21,12.60
2009,05,22,12,22,12.50
2009,05,22,12,23,12.60
2009,05,22,12,24,12.60
2009,05,22,12,25,12.70
2009,05,22,12,26,12.60
2009,05,22,12,27,12.60
2009,05,22,12,28,12.60
2009,05,22,12,29,12.60
2009,05,22,12,30,12.70
2009,05,22,12,31,12.70
2009,05,22,12,32,12.80
2009,05,22,12,33,12.80
2009,05,22,12,34,12.90
2009,05,22,12,35,13.10
2009,05,22,12,36,13.10
2009,05,22,12,37,13.10
2009,05,22,12,38,13.00
2009,05,22,12,39,13.00
2009,05,22,12,40,13.00
2009,05,22,12,41,13.00
2009,05,22,12,42,12.90
2009,05,22,12,43,12.90
2009,05,22,12,44,12.90
2009,05,22,12,45,12.90
2009,05,22,12,46,12.90
2009,05,22,12,47,13.00
2009,05,22,12,48,12.90
2009,05,22,12,49,12.90
2009,05,22,12,50,13.00
2009,05,22,12,51,13.00
2009,05,22,12,52,13.00
2009,05,22,12,53,13.00
2009,05,22,12,54,13.00
2009,05,22,12,55,13.00
2009,05,22,12,56,13.10
2009,05,22,12,57,13.10
2009,05,22,12,58,13.10
2009,05,22,12,59,13.10
2009,05,22,13,00,13.20
2009,05,22,13,01,13.20
2009,05,22,13,02,13.20
2009,05,22,13,03,13.20
2009,05,22,13,04,13.30
2009,05,22,13,05,13.40
2009,05,22,13,06,13.50
2009,05,22,13,07,13.50
2009,05,22,13,08,13.60
2009,05,22,13,09,13.60
2009,05,22,13,10,13.60
2009,05,22,13,11,13.70
2009,05,22,13,12,13.80
2009,05,22,13,13,13.80
2009,05,22,13,14,13.80
2009,05,22,13,15,13.80
2009,05,22,13,16,13.80
2009,05,22,13,17,13.80
2009,05,22,13,18,13.80
2009,05,22,13,19,13.80
2009,05,22,13,20,13.80
2009,05,22,13,21,13.80
2009,05,22,13,22,13.80
2009,05,22,13,23,13.80
2009,05,22,13,24,13.90
2009,05,22,13,25,14.00
2009,05,22,13,26,14.10
2009,05,22,13,27,14.10
2009,05,22,13,28,14.20
2009,05,22,13,29,14.20
2009,05,22,13,30,14.30
2009,05,22,13,31,14.40
2009,05,22,13,32,14.50
2009,05,22,13,33,14.60
2009,05,22,13,34,14.70
2009,05,22,13,35,14.70
2009,05,22,13,36,14.80
2009,05,22,13,37,14.80
2009,05,22,13,38,14.90
2009,05,22,13,39,14.80
2009,05,22,13,40,14.80
2009,05,22,13,41,14.80
2009,05,22,13,42,14.90
2009,05,22,13,43,15.00
2009,05,22,13,44,15.00
2009,05,22,13,45,15.00
2009,05,22,13,46,14.90
2009,05,22,13,47,15.00
2009,05,22,13,48,15.00
2009,05,22,13,49,14.90
2009,05,22,13,50,14.90
2009,05,22,13,51,15.00
2009,05,22,13,52,15.00
2009,05,22,13,53,15.00
2009,05,22,13,54,15.00
2009,05,22,13,55,15.00
2009,05,22,13,56,15.00
2009,05,22,13,57,15.10
2009,05,22,13,58,15.20
2009,05,22,13,59,15.30
2009,05,22,14,00,15.30
2009,05,22,14,01,15.30
2009,05,22,14,02,15.30
2009,05,22,14,03,15.20
2009,05,22,14,04,15.20
2009,05,22,14,05,15.20
2009,05,22,14,06,15.20
2009,05,22,14,07,15.10
2009,05,22,14,08,15.20
2009,05,22,14,09,15.20
2009,05,22,14,10,15.10
2009,05,22,14,11,15.00
2009,05,22,14,12,15.00
2009,05,22,14,13,15.00
2009,05,22,14,14,15.00
2009,05,22,14,15,15.00
2009,05,22,14,16,15.00
2009,05,22,14,17,15.00
2009,05,22,14,18,15.00
2009,05,22,14,19,15.00
2009,05,22,14,20,15.10
2009,05,22,14,21,15.10
2009,05,22,14,22,15.20
2009,05,22,14,23,15.20
2009,05,22,14,24,15.30
2009,05,22,14,25,15.30
2009,05,22,14,26,15.40
2009,05,22,14,27,15.50
2009,05,22,14,28,15.50
2009,05,22,14,29,15.50
2009,05,22,14,30,15.50
2009,05,22,14,31,15.40
2009,05,22,14,32,15.40
2009,05,22,14,33,15.40
2009,05,22,14,34,15.40
2009,05,22,14,35,15.50
2009,05,22,14,36,15.50
2009,05,22,14,37,15.50
2009,05,22,14,38,15.50
2009,05,22,14,39,15.40
2009,05,22,14,40,15.50
2009,05,22,14,41,15.50
2009,05,22,14,42,15.50
2009,05,22,14,43,15.50
2009,05,22,14,44,15.60
2009,05,22,14,45,15.50
2009,05,22,14,46,15.60
2009,05,22,14,47,15.70
2009,05,22,14,48,15.70
2009,05,22,14,49,15.80
2009,05,22,14,50,15.90
2009,05,22,14,51,15.90
2009,05,22,14,52,15.90
2009,05,22,14,53,15.90
2009,05,22,14,54,15.90
2009,05,22,14,55,15.80
2009,05,22,14,56,15.80
2009,05,22,14,57,15.80
2009,05,22,14,58,15.80
2009,05,22,14,59,15.80
2009,05,22,15,00,15.90
2009,05,22,15,01,15.90
2009,05,22,15,02,16.00
2009,05,22,15,03,16.00
2009,05,22,15,04,16.00
2009,05,22,15,05,16.00
2009,05,22,15,06,15.90
2009,05,22,15,07,16.00
2009,05,22,15,08,16.00
2009,05,22,15,09,16.10
2009,05,22,15,10,16.20
2009,05,22,15,11,16.20
2009,05,22,15,12,16.10
2009,05,22,15,13,16.10
2009,05,22,15,14,16.10
2009,05,22,15,15,16.10
2009,05,22,15,16,16.10
2009,05,22,15,17,16.10
2009,05,22,15,18,16.10
2009,05,22,15,19,16.10
2009,05,22,15,20,16.00
2009,05,22,15,21,16.00
2009,05,22,15,22,16.00
2009,05,22,15,23,16.10
2009,05,22,15,24,16.10
2009,05,22,15,25,16.00
2009,05,22,15,26,15.90
2009,05,22,15,27,15.90
2009,05,22,15,28,15.90
2009,05,22,15,29,15.90
2009,05,22,15,30,15.90
2009,05,22,15,31,15.90
2009,05,22,15,32,15.90
2009,05,22,15,33,15.90
2009,05,22,15,34,15.90
2009,05,22,15,35,15.90
2009,05,22,15,36,15.90
2009,05,22,15,37,15.90
2009,05,22,15,38,15.90
2009,05,22,15,39,15.90
2009,05,22,15,40,15.90
2009,05,22,15,41,15.90
2009,05,22,15,42,16.00
2009,05,22,15,43,16.00
2009,05,22,15,44,16.10
2009,05,22,15,45,16.20
2009,05,22,15,46,16.20
2009,05,22,15,47,16.20
2009,05,22,15,48,16.20
2009,05,22,15,49,16.20
2009,05,22,15,50,16.20
2009,05,22,15,51,16.30
2009,05,22,15,52,16.30
2009,05,22,15,53,16.30
2009,05,22,15,54,16.30
2009,05,22,15,55,16.30
2009,05,22,15,56,16.30
2009,05,22,15,57,16.20
2009,05,22,15,58,16.10
2009,05,22,15,59,16.10
2009,05,22,16,00,16.00
2009,05,22,16,01,16.00
2009,05,22,16,02,16.10
2009,05,22,16,03,16.10
2009,05,22,16,04,16.00
2009,05,22,16,05,15.90
2009,05,22,16,06,15.90
2009,05,22,16,07,15.90
2009,05,22,16,08,15.90
2009,05,22,16,09,15.90
2009,05,22,16,10,15.80
2009,05,22,16,11,15.80
2009,05,22,16,12,15.80
2009,05,22,16,13,15.90
2009,05,22,16,14,15.90
2009,05,22,16,15,15.90
2009,05,22,16,16,15.90
2009,05,22,16,17,16.00
2009,05,22,16,18,16.00
2009,05,22,16,19,16.00
2009,05,22,16,20,16.00
2009,05,22,16,21,16.00
2009,05,22,16,22,15.90
2009,05,22,16,23,15.80
2009,05,22,16,24,15.80
2009,05,22,16,25,15.80
2009,05,22,16,26,15.70
2009,05,22,16,27,15.70
2009,05,22,16,28,15.70
2009,05,22,16,29,15.60
2009,05,22,16,30,15.50
2009,05,22,16,31,15.40
2009,05,22,16,32,15.30
2009,05,22,16,33,15.30
2009,05,22,16,34,15.20
2009,05,22,16,35,15.20
2009,05,22,16,36,15.20
2009,05,22,16,37,15.20
2009,05,22,16,38,15.30
2009,05,22,16,39,15.40
2009,05,22,16,40,15.50
2009,05,22,16,41,15.60
2009,05,22,16,42,15.70
2009,05,22,16,43,15.70
2009,05,22,16,44,15.70
2009,05,22,16,45,15.60
2009,05,22,16,46,15.60
2009,05,22,16,47,15.50
2009,05,22,16,48,15.50
2009,05,22,16,49,15.40
2009,05,22,16,50,15.40
2009,05,22,16,51,15.40
2009,05,22,16,52,15.40
2009,05,22,16,53,15.30
2009,05,22,16,54,15.20
2009,05,22,16,55,15.20
2009,05,22,16,56,15.20
2009,05,22,16,57,15.30
2009,05,22,16,58,15.30
2009,05,22,16,59,15.20
2009,05,22,17,00,15.20
2009,05,22,17,01,15.20
2009,05,22,17,02,15.20
2009,05,22,17,03,15.30
2009,05,22,17,04,15.30
2009,05,22,17,05,15.30
2009,05,22,17,06,15.40
2009,05,22,17,07,15.50
2009,05,22,17,08,15.50
2009,05,22,17,09,15.60
2009,05,22,17,10,15.70
2009,05,22,17,11,15.70
2009,05,22,17,12,15.80
2009,05,22,17,13,15.80
2009,05,22,17,14,15.80
2009,05,22,17,15,15.80
2009,05,22,17,16,15.80
2009,05,22,17,17,15.80
2009,05,22,17,18,15.80
2009,05,22,17,19,15.80
2009,05,22,17,20,15.80
2009,05,22,17,21,15.80
2009,05,22,17,22,15.80
2009,05,22,17,23,15.90
2009,05,22,17,24,15.90
2009,05,22,17,25,15.90
2009,05,22,17,26,15.80
2009,05,22,17,27,15.80
2009,05,22,17,28,15.70
2009,05,22,17,29,15.60
2009,05,22,17,30,15.50
2009,05,22,17,31,15.40
2009,05,22,17,32,15.40
2009,05,22,17,33,15.40
2009,05,22,17,34,15.40
2009,05,22,17,35,15.50
2009,05,22,17,36,15.50
2009,05,22,17,37,15.50
2009,05,22,17,38,15.50